Simultaneous Nadir Overpasses (SNOs) Predictions

Prediction of SNOs between NOAA-20 and NOAA-19 Satellite Orbit:

Table of predicted SNOs for the next 14.0 days since TLE Epoch: 1/28/2024
Index Date (NOAA-20) Time (NOAA-20) Lat,Lon (NOAA-20) SZA (NOAA-20 ) Date (NOAA-19) Time (NOAA-19) Lat,Lon (NOAA-19) SZA (NOAA-19 ) Distance(km) Time Diff (sec)
1 01/28/2024 07:11:43 -73.30,-117.23 88.12 01/28/2024 07:10:37 -73.30,-120.27 87.89 97.13 66
2 01/28/2024 08:02:36 73.64, 49.30 92.25 01/28/2024 08:01:25 73.61, 47.75 92.35 48.66 71
3 01/28/2024 08:53:26 -73.94,-144.12 87.41 01/28/2024 08:52:22 -73.95,-144.16 87.38 1.67 64
4 01/28/2024 09:44:13 73.99, 23.09 92.63 01/28/2024 09:43:16 73.97, 23.17 92.63 2.84 57
5 01/28/2024 10:34:57 -73.99,-169.62 87.37 01/28/2024 10:34:20 -73.97,-169.59 87.39 2.39 37
6 01/28/2024 11:25:43 73.99, -2.30 92.61 01/28/2024 11:25:14 73.99, -2.27 92.63 0.97 29
7 01/28/2024 12:16:27 -74.00, 165.00 87.39 01/28/2024 12:16:18 -74.00, 164.97 87.39 0.97 9
8 01/28/2024 13:07:13 73.99, -27.68 92.60 01/28/2024 13:07:12 74.01, -27.71 92.62 2.83 1
9 01/28/2024 13:57:57 -74.00, 139.62 87.41 01/28/2024 13:58:16 -74.02, 139.53 87.39 3.19 19
10 01/28/2024 14:48:44 74.04, -53.18 92.64 01/28/2024 14:49:10 74.04, -53.14 92.62 1.35 26
11 01/28/2024 15:39:28 -74.05, 114.11 87.36 01/28/2024 15:40:14 -74.04, 114.09 87.39 1.83 46
12 01/28/2024 16:30:14 74.05, -78.56 92.62 01/28/2024 16:31:08 74.06, -78.58 92.62 1.41 54
13 01/28/2024 17:20:58 -74.05, 88.73 87.38 01/28/2024 17:22:12 -74.06, 88.66 87.39 2.41 74
14 01/28/2024 18:11:50 74.34,-104.69 92.94 01/28/2024 18:13:01 74.32,-103.38 92.82 39.52 71



Historial Predications of SNOs between NOAA-20 and NOAA-19
